Погода в Юме

США     32°43′31″N   114°37′24″W
темп.,
°C
ветер,
м/с
пор.,
м/с
влажн.,
%
обл.,
%
осадки,
мм/ч
давл.,
гПа
погр.,
м
16 октября, сб
сб1623:00+22ссз45140 0.0 101648
02:00+19с48180 0.0 101596
05:00+18с58190 0.0 1015110
08:00+20с510170 0.0 1016204
11:00+30св5690 0.0 10151379
14:00+33всв5580 0.0 10121956
17:00+32в3390 0.0 1011592
20:00+24ссз45130 0.0 101251
17 октября, вс
вс1723:00+23ссз33145 0.0 101214
02:00+20ссз111771 0.0 101211
05:00+19ююв011899 0.0 101211
08:00+22ююв2326100 0.0 101369
11:00+28ююз441897 0.0 1013778
14:00+31ююз55115 0.0 10101742
17:00+30ююз55110 0.0 10091222
20:00+24юз33190 0.0 101031
18 октября, пн
пн1823:00+20зсз22220 0.0 101120
02:00+18з11240 0.0 101118
05:00+16ююз11290 0.0 101012
08:00+19ююз13315 0.0 1011108
11:00+24зюз22235 0.0 1011901
14:00+28зюз44153 0.0 10091507
17:00+27зсз55174 0.0 10081176
20:00+20зсз483824 0.0 1009188
19 октября, вт
вт1923:00+17ю11500 0.0 101114
02:00+15зюз11560 0.0 101111
05:00+14сз11630 0.0 101111
08:00+18с12500 0.0 101387
11:00+24ссв01320 0.0 1014835
14:00+27юз21275 0.0 10121656
17:00+27юз21242 0.0 10111427
20:00+22юз223373 0.0 101313
20 октября, ср
ср2023:00+20зсз1132100 0.0 101411
02:00+18сз1135100 0.0 101411
05:00+18ссз0036100 0.0 101411
08:00+22с1131100 0.0 101616
11:00+27ююв112399 0.0 1017827
14:00+29ююз212052 0.0 10151766
17:00+29юз21192 0.0 1014907
20:00+22юз22292 0.0 101511